"Sample Date","Sample Time","Sample Value","Units","Flow Rate","Sample Interval","Number Channels","Micron Size 0","Counts/Channel 0","Micron Size 1","Counts/Channel 1","Micron Size 2","Counts/Channel 2","Micron Size 3","Counts/Channel 3","Micron Size 4","Counts/Channel 4","Micron Size 5","Counts/Channel 5","Micron Size 6","Counts/Channel 6","Micron Size 7","Counts/Channel 7","Micron Size 8","Counts/Channel 8","Micron Size 9","Counts/Channel 9","Micron Size 10","Counts/Channel 10","Micron Size 11","Counts/Channel 11","Micron Size 12","Counts/Channel 12","Micron Size 13","Counts/Channel 13","Micron Size 14","Counts/Channel 14","Micron Size 15","Counts/Channel 15","Micron Size 16","Counts/Channel 16","Micron Size 17","Counts/Channel 17","Micron Size 18","Counts/Channel 18","Micron Size 19","Counts/Channel 19","Micron Size 20","Counts/Channel 20","Micron Size 21","Counts/Channel 21","Micron Size 22","Counts/Channel 22","Micron Size 23","Counts/Channel 23","Micron Size 24","Counts/Channel 24","Micron Size 25","Counts/Channel 25","Micron Size 26","Counts/Channel 26","Micron Size 27","Counts/Channel 27","Micron Size 28","Counts/Channel 28","Micron Size 29","Counts/Channel 29","Micron Size 30","Counts/Channel 30","Micron Size 31","Counts/Channel 31"
"04/01/08","03:00:00",12544.000,"cc",28361.148,6.00,6,0.100,8286.000,0.200,1898.000,0.300,914.000,0.500,1073.000,1.000,373.000,5.000,0
"04/01/08","03:00:06",13001.000,"cc",28242.596,6.00,6,0.100,8530.000,0.200,1874.000,0.300,1116.000,0.500,1076.000,1.000,405.000,5.000,0
"04/01/08","03:00:12",15270.000,"cc",28334.535,6.00,6,0.100,9668.000,0.200,2343.000,0.300,1483.000,0.500,1310.000,1.000,466.000,5.000,0
"04/01/08","03:00:18",14559.000,"cc",28344.381,6.00,6,0.100,9514.000,0.200,2214.000,0.300,1196.000,0.500,1229.000,1.000,406.000,5.000,0
"04/01/08","03:00:24",12533.000,"cc",28276.930,6.00,6,0.100,8327.000,0.200,1830.000,0.300,974.000,0.500,1046.000,1.000,356.000,5.000,0
"04/01/08","03:00:30",11093.000,"cc",28320.289,6.00,6,0.100,7415.000,0.200,1585.000,0.300,830.000,0.500,947.000,1.000,316.000,5.000,0
"04/01/08","03:00:36",11395.000,"cc",28278.377,6.00,6,0.100,7655.000,0.200,1642.000,0.300,851.000,0.500,912.000,1.000,335.000,5.000,0
"04/01/08","03:00:42",11272.000,"cc",28313.291,6.00,6,0.100,7608.000,0.200,1583.000,0.300,807.000,0.500,952.000,1.000,322.000,5.000,0
"04/01/08","03:00:48",14850.000,"cc",28344.619,6.00,6,0.100,9371.000,0.200,2334.000,0.300,1346.000,0.500,1314.000,1.000,485.000,5.000,0
"04/01/08","03:00:54",11846.000,"cc",28301.836,6.00,6,0.100,7781.000,0.200,1794.000,0.300,948.000,0.500,978.000,1.000,345.000,5.000,0
"04/01/08","03:01:00",12164.000,"cc",28321.719,6.00,6,0.100,7981.000,0.200,1788.000,0.300,1002.000,0.500,1040.000,1.000,353.000,5.000,0
"04/01/08","03:01:06",12417.000,"cc",28281.881,6.00,6,0.100,8058.000,0.200,1838.000,0.300,1081.000,0.500,1089.000,1.000,351.000,5.000,0
"04/01/08","03:01:12",14189.000,"cc",28359.637,6.00,6,0.100,8845.000,0.200,2223.000,0.300,1357.000,0.500,1307.000,1.000,457.000,5.000,0
"04/01/08","03:01:18",11881.000,"cc",28316.488,6.00,6,0.100,7676.000,0.200,1852.000,0.300,931.000,0.500,1029.000,1.000,393.000,5.000,0
"04/01/08","03:01:24",11862.000,"cc",28329.574,6.00,6,0.100,7975.000,0.200,1680.000,0.300,878.000,0.500,987.000,1.000,342.000,5.000,0
"04/01/08","03:01:30",12264.000,"cc",28276.188,6.00,6,0.100,8213.000,0.200,1775.000,0.300,915.000,0.500,979.000,1.000,382.000,5.000,0
"04/01/08","03:01:36",12342.000,"cc",28290.498,6.00,6,0.100,8153.000,0.200,1774.000,0.300,1008.000,0.500,1040.000,1.000,367.000,5.000,0
"04/01/08","03:01:42",13475.000,"cc",28296.611,6.00,6,0.100,8736.000,0.200,2030.000,0.300,1157.000,0.500,1159.000,1.000,393.000,5.000,0
"04/01/08","03:01:48",12748.000,"cc",28346.705,6.00,6,0.100,8183.000,0.200,1934.000,0.300,1098.000,0.500,1160.000,1.000,373.000,5.000,0
"04/01/08","03:01:54",13047.000,"cc",28339.457,6.00,6,0.100,8496.000,0.200,1925.000,0.300,1038.000,0.500,1190.000,1.000,398.000,5.000,0
"04/01/08","03:02:00",13009.000,"cc",28362.949,6.00,6,0.100,8549.000,0.200,1881.000,0.300,1058.000,0.500,1143.000,1.000,378.000,5.000,0
"04/01/08","03:02:06",13821.000,"cc",28288.096,6.00,6,0.100,8794.000,0.200,2146.000,0.300,1184.000,0.500,1241.000,1.000,456.000,5.000,0
"04/01/08","03:02:12",13788.000,"cc",28329.756,6.00,6,0.100,8841.000,0.200,2051.000,0.300,1226.000,0.500,1252.000,1.000,418.000,5.000,0
"04/01/08","03:02:18",12996.000,"cc",28346.387,6.00,6,0.100,8501.000,0.200,1978.000,0.300,1056.000,0.500,1070.000,1.000,391.000,5.000,0
"04/01/08","03:02:24",11241.000,"cc",28271.865,6.00,6,0.100,7434.000,0.200,1612.000,0.300,828.000,0.500,1007.000,1.000,360.000,5.000,0
"04/01/08","03:02:30",11757.000,"cc",28211.297,6.00,6,0.100,7869.000,0.200,1648.000,0.300,904.000,0.500,979.000,1.000,357.000,5.000,0
"04/01/08","03:02:36",11744.000,"cc",28299.961,6.00,6,0.100,7963.000,0.200,1600.000,0.300,862.000,0.500,968.000,1.000,351.000,5.000,0
"04/01/08","03:02:42",11186.000,"cc",28367.744,6.00,6,0.100,7581.000,0.200,1589.000,0.300,828.000,0.500,897.000,1.000,291.000,5.000,0
"04/01/08","03:02:48",10747.000,"cc",28370.387,6.00,6,0.100,7368.000,0.200,1466.000,0.300,787.000,0.500,831.000,1.000,295.000,5.000,0
"04/01/08","03:02:54",10951.000,"cc",28306.324,6.00,6,0.100,7460.000,0.200,1511.000,0.300,810.000,0.500,850.000,1.000,320.000,5.000,0
"04/01/08","03:03:00",10935.000,"cc",28307.791,6.00,6,0.100,7404.000,0.200,1533.000,0.300,807.000,0.500,885.000,1.000,306.000,5.000,0
"04/01/08","03:03:06",10957.000,"cc",28310.785,6.00,6,0.100,7335.000,0.200,1555.000,0.300,838.000,0.500,921.000,1.000,308.000,5.000,0
"04/01/08","03:03:12",12471.000,"cc",28336.139,6.00,6,0.100,8094.000,0.200,1866.000,0.300,1024.000,0.500,1115.000,1.000,372.000,5.000,0
"04/01/08","03:03:18",12540.000,"cc",28303.721,6.00,6,0.100,8126.000,0.200,1861.000,0.300,1020.000,0.500,1137.000,1.000,396.000,5.000,0
"04/01/08","03:03:24",12781.000,"cc",28322.684,6.00,6,0.100,8281.000,0.200,1921.000,0.300,1039.000,0.500,1166.000,1.000,374.000,5.000,0
"04/01/08","03:03:30",13659.000,"cc",28382.904,6.00,6,0.100,8710.000,0.200,2103.000,0.300,1224.000,0.500,1184.000,1.000,438.000,5.000,0
"04/01/08","03:03:36",12266.000,"cc",28310.258,6.00,6,0.100,8123.000,0.200,1797.000,0.300,964.000,0.500,1028.000,1.000,354.000,5.000,0
"04/01/08","03:03:42",12466.000,"cc",28271.777,6.00,6,0.100,8208.000,0.200,1775.000,0.300,1033.000,0.500,1022.000,1.000,428.000,5.000,0
"04/01/08","03:03:48",11875.000,"cc",28344.203,6.00,6,0.100,7772.000,0.200,1746.000,0.300,961.000,0.500,1052.000,1.000,344.000,5.000,0
"04/01/08","03:03:54",12305.000,"cc",28299.129,6.00,6,0.100,8033.000,0.200,1842.000,0.300,987.000,0.500,1059.000,1.000,384.000,5.000,0
"04/01/08","03:04:00",12519.000,"cc",28328.900,6.00,6,0.100,8080.000,0.200,1832.000,0.300,1107.000,0.500,1124.000,1.000,376.000,5.000,0
"04/01/08","03:04:06",12063.000,"cc",28323.115,6.00,6,0.100,7781.000,0.200,1859.000,0.300,1012.000,0.500,1047.000,1.000,364.000,5.000,0
"04/01/08","03:04:12",12803.000,"cc",28327.322,6.00,6,0.100,8286.000,0.200,1913.000,0.300,1089.000,0.500,1096.000,1.000,419.000,5.000,0
"04/01/08","03:04:18",12597.000,"cc",28268.316,6.00,6,0.100,8200.000,0.200,1934.000,0.300,979.000,0.500,1091.000,1.000,393.000,5.000,0
"04/01/08","03:04:24",13060.000,"cc",28301.715,6.00,6,0.100,8490.000,0.200,1978.000,0.300,1098.000,0.500,1100.000,1.000,394.000,5.000,0
"04/01/08","03:04:30",12745.000,"cc",28353.373,6.00,6,0.100,8349.000,0.200,1897.000,0.300,1050.000,0.500,1090.000,1.000,359.000,5.000,0
"04/01/08","03:04:36",13712.000,"cc",28296.777,6.00,6,0.100,8855.000,0.200,2079.000,0.300,1149.000,0.500,1228.000,1.000,401.000,5.000,0
"04/01/08","03:04:42",14544.000,"cc",28279.834,6.00,6,0.100,9142.000,0.200,2311.000,0.300,1336.000,0.500,1269.000,1.000,486.000,5.000,0
"04/01/08","03:04:48",13109.000,"cc",28347.440,6.00,6,0.100,8427.000,0.200,1951.000,0.300,1181.000,0.500,1126.000,1.000,424.000,5.000,0
"04/01/08","03:04:54",12983.000,"cc",28341.440,6.00,6,0.100,8363.000,0.200,1851.000,0.300,1156.000,0.500,1218.000,1.000,395.000,5.000,0
"04/01/08","03:05:00",12553.000,"cc",28284.332,6.00,6,0.100,8157.000,0.200,1880.000,0.300,1024.000,0.500,1119.000,1.000,373.000,5.000,0
"04/01/08","03:05:06",12222.000,"cc",28299.086,6.00,6,0.100,8043.000,0.200,1764.000,0.300,943.000,0.500,1121.000,1.000,351.000,5.000,0
"04/01/08","03:05:12",12344.000,"cc",28341.541,6.00,6,0.100,8090.000,0.200,1843.000,0.300,974.000,0.500,1084.000,1.000,353.000,5.000,0
"04/01/08","03:05:18",12589.000,"cc",28292.623,6.00,6,0.100,8208.000,0.200,1828.000,0.300,1100.000,0.500,1074.000,1.000,379.000,5.000,0
"04/01/08","03:05:24",12541.000,"cc",28349.047,6.00,6,0.100,8116.000,0.200,1854.000,0.300,1073.000,0.500,1097.000,1.000,401.000,5.000,0
"04/01/08","03:05:30",13008.000,"cc",28320.787,6.00,6,0.100,8420.000,0.200,1972.000,0.300,1068.000,0.500,1126.000,1.000,422.000,5.000,0
"04/01/08","03:05:36",13534.000,"cc",28303.231,6.00,6,0.100,8691.000,0.200,2049.000,0.300,1165.000,0.500,1196.000,1.000,433.000,5.000,0
"04/01/08","03:05:42",13681.000,"cc",28324.975,6.00,6,0.100,8705.000,0.200,2113.000,0.300,1217.000,0.500,1207.000,1.000,439.000,5.000,0
"04/01/08","03:05:48",14436.000,"cc",28278.815,6.00,6,0.100,9152.000,0.200,2256.000,0.300,1323.000,0.500,1257.000,1.000,448.000,5.000,0
"04/01/08","03:05:54",14668.000,"cc",28310.447,6.00,6,0.100,9632.000,0.200,2225.000,0.300,1180.000,0.500,1244.000,1.000,387.000,5.000,0
"04/01/08","03:06:00",15666.000,"cc",28321.537,6.00,6,0.100,10352.000,0.200,2438.000,0.300,1273.000,0.500,1177.000,1.000,426.000,5.000,0
"04/01/08","03:06:06",14456.000,"cc",28319.408,6.00,6,0.100,9728.000,0.200,2191.000,0.300,1035.000,0.500,1117.000,1.000,385.000,5.000,0
"04/01/08","03:06:12",14380.000,"cc",28293.104,6.00,6,0.100,9618.000,0.200,2011.000,0.300,1155.000,0.500,1179.000,1.000,417.000,5.000,0
"04/01/08","03:06:18",13917.000,"cc",28354.412,6.00,6,0.100,9443.000,0.200,1998.000,0.300,1053.000,0.500,1041.000,1.000,382.000,5.000,0
"04/01/08","03:06:24",14932.000,"cc",28351.807,6.00,6,0.100,9809.000,0.200,2292.000,0.300,1151.000,0.500,1255.000,1.000,425.000,5.000,0
"04/01/08","03:06:30",16101.000,"cc",28287.344,6.00,6,0.100,10328.000,0.200,2451.000,0.300,1421.000,0.500,1386.000,1.000,515.000,5.000,0
"04/01/08","03:06:36",15400.000,"cc",28305.805,6.00,6,0.100,10225.000,0.200,2198.000,0.300,1279.000,0.500,1249.000,1.000,449.000,5.000,0
"04/01/08","03:06:42",15389.000,"cc",28362.178,6.00,6,0.100,10030.000,0.200,2388.000,0.300,1203.000,0.500,1338.000,1.000,430.000,5.000,0
"04/01/08","03:06:48",15564.000,"cc",28306.801,6.00,6,0.100,10131.000,0.200,2338.000,0.300,1302.000,0.500,1322.000,1.000,471.000,5.000,0
"04/01/08","03:06:54",16272.000,"cc",28306.176,6.00,6,0.100,10451.000,0.200,2466.000,0.300,1459.000,0.500,1408.000,1.000,488.000,5.000,0
"04/01/08","03:07:00",16015.000,"cc",28325.260,6.00,6,0.100,10518.000,0.200,2388.000,0.300,1323.000,0.500,1314.000,1.000,472.000,5.000,0
"04/01/08","03:07:06",18309.000,"cc",28307.988,6.00,6,0.100,11671.000,0.200,2885.000,0.300,1697.000,0.500,1533.000,1.000,523.000,5.000,0
"04/01/08","03:07:12",18125.000,"cc",28274.996,6.00,6,0.100,11765.000,0.200,2849.000,0.300,1489.000,0.500,1503.000,1.000,519.000,5.000,0
"04/01/08","03:07:18",19316.000,"cc",28281.705,6.00,6,0.100,12557.000,0.200,2979.000,0.300,1667.000,0.500,1523.000,1.000,590.000,5.000,0
"04/01/08","03:07:24",14609.000,"cc",28335.631,6.00,6,0.100,9650.000,0.200,2187.000,0.300,1156.000,0.500,1181.000,1.000,435.000,5.000,0
"04/01/08","03:07:30",17236.000,"cc",28310.418,6.00,6,0.100,11221.000,0.200,2612.000,0.300,1506.000,0.500,1445.000,1.000,452.000,5.000,0
"04/01/08","03:07:36",23245.000,"cc",28308.678,6.00,6,0.100,14503.000,0.200,3801.000,0.300,2127.000,0.500,2049.000,1.000,765.000,5.000,0
"04/01/08","03:07:42",20004.000,"cc",28312.176,6.00,6,0.100,12621.000,0.200,3242.000,0.300,1820.000,0.500,1700.000,1.000,621.000,5.000,0
"04/01/08","03:07:48",19480.000,"cc",28310.947,6.00,6,0.100,12241.000,0.200,3114.000,0.300,1840.000,0.500,1674.000,1.000,611.000,5.000,0
"04/01/08","03:07:54",15575.000,"cc",28327.504,6.00,6,0.100,9917.000,0.200,2343.000,0.300,1367.000,0.500,1409.000,1.000,539.000,5.000,0
"04/01/08","03:08:00",18945.000,"cc",28248.727,6.00,6,0.100,11610.000,0.200,3071.000,0.300,1782.000,0.500,1806.000,1.000,676.000,5.000,0
"04/01/08","03:08:06",22418.000,"cc",28334.234,6.00,6,0.100,12949.000,0.200,3665.000,0.300,2459.000,0.500,2432.000,1.000,913.000,5.000,0
"04/01/08","03:08:12",16577.000,"cc",28386.346,6.00,6,0.100,10160.000,0.200,2544.000,0.300,1534.000,0.500,1732.000,1.000,607.000,5.000,0
"04/01/08","03:08:18",13249.000,"cc",28311.596,6.00,6,0.100,8379.000,0.200,1999.000,0.300,1173.000,0.500,1219.000,1.000,479.000,5.000,0
"04/01/08","03:08:24",15407.000,"cc",28308.326,6.00,6,0.100,9560.000,0.200,2388.000,0.300,1439.000,0.500,1493.000,1.000,527.000,5.000,0
"04/01/08","03:08:30",15181.000,"cc",28382.598,6.00,6,0.100,9329.000,0.200,2337.000,0.300,1412.000,0.500,1550.000,1.000,553.000,5.000,0
"04/01/08","03:08:36",16004.000,"cc",28270.996,6.00,6,0.100,9633.000,0.200,2473.000,0.300,1585.000,0.500,1685.000,1.000,628.000,5.000,0
"04/01/08","03:08:42",16826.000,"cc",28276.348,6.00,6,0.100,9954.000,0.200,2660.000,0.300,1734.000,0.500,1804.000,1.000,674.000,5.000,0
"04/01/08","03:08:48",15786.000,"cc",28341.234,6.00,6,0.100,9555.000,0.200,2475.000,0.300,1531.000,0.500,1590.000,1.000,635.000,5.000,0
"04/01/08","03:08:54",16611.000,"cc",28308.697,6.00,6,0.100,9886.000,0.200,2664.000,0.300,1700.000,0.500,1675.000,1.000,686.000,5.000,0
"04/01/08","03:09:00",14497.000,"cc",28290.172,6.00,6,0.100,8914.000,0.200,2220.000,0.300,1366.000,0.500,1470.000,1.000,527.000,5.000,0
"04/01/08","03:09:06",14007.000,"cc",28361.440,6.00,6,0.100,8820.000,0.200,2116.000,0.300,1220.000,0.500,1328.000,1.000,523.000,5.000,0
"04/01/08","03:09:12",14766.000,"cc",28385.953,6.00,6,0.100,9316.000,0.200,2186.000,0.300,1354.000,0.500,1392.000,1.000,518.000,5.000,0
"04/01/08","03:09:18",14254.000,"cc",28287.918,6.00,6,0.100,9033.000,0.200,2043.000,0.300,1240.000,0.500,1402.000,1.000,536.000,5.000,0
"04/01/08","03:09:24",11961.000,"cc",28278.350,6.00,6,0.100,7972.000,0.200,1706.000,0.300,895.000,0.500,1004.000,1.000,384.000,5.000,0
"04/01/08","03:09:30",11503.000,"cc",28305.473,6.00,6,0.100,7775.000,0.200,1568.000,0.300,878.000,0.500,938.000,1.000,344.000,5.000,0
"04/01/08","03:09:36",11034.000,"cc",28296.406,6.00,6,0.100,7528.000,0.200,1535.000,0.300,788.000,0.500,883.000,1.000,300.000,5.000,0
"04/01/08","03:09:42",11137.000,"cc",28290.850,6.00,6,0.100,7591.000,0.200,1529.000,0.300,779.000,0.500,897.000,1.000,341.000,5.000,0
"04/01/08","03:09:48",11351.000,"cc",28260.387,6.00,6,0.100,7729.000,0.200,1578.000,0.300,828.000,0.500,916.000,1.000,300.000,5.000,0
"04/01/08","03:09:54",11189.000,"cc",28357.055,6.00,6,0.100,7688.000,0.200,1505.000,0.300,767.000,0.500,906.000,1.000,323.000,5.000,0
"04/01/08","03:10:00",10839.000,"cc",28304.051,6.00,6,0.100,7444.000,0.200,1445.000,0.300,770.000,0.500,894.000,1.000,286.000,5.000,0
"04/01/08","03:10:06",10965.000,"cc",28324.238,6.00,6,0.100,7477.000,0.200,1499.000,0.300,808.000,0.500,849.000,1.000,332.000,5.000,0
"04/01/08","03:10:12",11178.000,"cc",28348.563,6.00,6,0.100,7672.000,0.200,1478.000,0.300,812.000,0.500,885.000,1.000,331.000,5.000,0
"04/01/08","03:10:18",10887.000,"cc",28367.846,6.00,6,0.100,7383.000,0.200,1497.000,0.300,793.000,0.500,885.000,1.000,329.000,5.000,0
"04/01/08","03:10:24",10666.000,"cc",28294.580,6.00,6,0.100,7342.000,0.200,1507.000,0.300,739.000,0.500,807.000,1.000,271.000,5.000,0
"04/01/08","03:10:30",11011.000,"cc",28290.668,6.00,6,0.100,7575.000,0.200,1464.000,0.300,850.000,0.500,801.000,1.000,321.000,5.000,0
"04/01/08","03:10:36",11031.000,"cc",28283.719,6.00,6,0.100,7589.000,0.200,1475.000,0.300,798.000,0.500,884.000,1.000,285.000,5.000,0
"04/01/08","03:10:42",10940.000,"cc",28375.291,6.00,6,0.100,7557.000,0.200,1421.000,0.300,812.000,0.500,872.000,1.000,278.000,5.000,0
"04/01/08","03:10:48",10914.000,"cc",28358.236,6.00,6,0.100,7505.000,0.200,1531.000,0.300,764.000,0.500,843.000,1.000,271.000,5.000,0
"04/01/08","03:10:54",11084.000,"cc",28343.594,6.00,6,0.100,7599.000,0.200,1455.000,0.300,801.000,0.500,925.000,1.000,304.000,5.000,0
"04/01/08","03:11:00",10848.000,"cc",28305.994,6.00,6,0.100,7552.000,0.200,1379.000,0.300,723.000,0.500,873.000,1.000,321.000,5.000,0
"04/01/08","03:11:06",11049.000,"cc",28368.838,6.00,6,0.100,7652.000,0.200,1470.000,0.300,797.000,0.500,833.000,1.000,297.000,5.000,0
"04/01/08","03:11:12",10666.000,"cc",28261.445,6.00,6,0.100,7379.000,0.200,1380.000,0.300,746.000,0.500,845.000,1.000,316.000,5.000,0
"04/01/08","03:11:18",10891.000,"cc",28291.227,6.00,6,0.100,7558.000,0.200,1405.000,0.300,742.000,0.500,871.000,1.000,315.000,5.000,0
"04/01/08","03:11:24",10962.000,"cc",28282.779,6.00,6,0.100,7548.000,0.200,1426.000,0.300,807.000,0.500,862.000,1.000,319.000,5.000,0
"04/01/08","03:11:30",10962.000,"cc",28296.598,6.00,6,0.100,7590.000,0.200,1491.000,0.300,731.000,0.500,828.000,1.000,322.000,5.000,0
"04/01/08","03:11:36",11030.000,"cc",28324.106,6.00,6,0.100,7616.000,0.200,1490.000,0.300,811.000,0.500,815.000,1.000,298.000,5.000,0
"04/01/08","03:11:42",10919.000,"cc",28360.986,6.00,6,0.100,7458.000,0.200,1487.000,0.300,812.000,0.500,826.000,1.000,336.000,5.000,0
"04/01/08","03:11:48",10856.000,"cc",28315.445,6.00,6,0.100,7555.000,0.200,1415.000,0.300,733.000,0.500,835.000,1.000,318.000,5.000,0
"04/01/08","03:11:54",10851.000,"cc",28255.025,6.00,6,0.100,7509.000,0.200,1438.000,0.300,799.000,0.500,818.000,1.000,287.000,5.000,0
"04/01/08","03:12:00",11161.000,"cc",28317.803,6.00,6,0.100,7714.000,0.200,1483.000,0.300,749.000,0.500,868.000,1.000,347.000,5.000,0
"04/01/08","03:12:06",11207.000,"cc",28323.748,6.00,6,0.100,7706.000,0.200,1488.000,0.300,792.000,0.500,880.000,1.000,341.000,5.000,0
"04/01/08","03:12:12",11005.000,"cc",28320.629,6.00,6,0.100,7619.000,0.200,1467.000,0.300,778.000,0.500,868.000,1.000,273.000,5.000,0
"04/01/08","03:12:18",11032.000,"cc",28319.803,6.00,6,0.100,7610.000,0.200,1444.000,0.300,828.000,0.500,825.000,1.000,325.000,5.000,0
"04/01/08","03:12:24",11074.000,"cc",28337.068,6.00,6,0.100,7716.000,0.200,1404.000,0.300,769.000,0.500,850.000,1.000,335.000,5.000,0
"04/01/08","03:12:30",10980.000,"cc",28303.268,6.00,6,0.100,7470.000,0.200,1515.000,0.300,810.000,0.500,888.000,1.000,297.000,5.000,0
"04/01/08","03:12:36",11072.000,"cc",28365.023,6.00,6,0.100,7589.000,0.200,1470.000,0.300,750.000,0.500,916.000,1.000,347.000,5.000,0
"04/01/08","03:12:42",10893.000,"cc",28346.742,6.00,6,0.100,7498.000,0.200,1465.000,0.300,755.000,0.500,857.000,1.000,318.000,5.000,0
"04/01/08","03:12:48",10969.000,"cc",28332.070,6.00,6,0.100,7553.000,0.200,1464.000,0.300,774.000,0.500,873.000,1.000,305.000,5.000,0
"04/01/08","03:12:54",10918.000,"cc",28297.533,6.00,6,0.100,7608.000,0.200,1362.000,0.300,745.000,0.500,895.000,1.000,308.000,5.000,0
"04/01/08","03:13:00",10976.000,"cc",28385.740,6.00,6,0.100,7707.000,0.200,1403.000,0.300,766.000,0.500,820.000,1.000,280.000,5.000,0
"04/01/08","03:13:06",10960.000,"cc",28273.397,6.00,6,0.100,7536.000,0.200,1483.000,0.300,790.000,0.500,816.000,1.000,335.000,5.000,0
"04/01/08","03:13:12",10589.000,"cc",28222.162,6.00,6,0.100,7375.000,0.200,1446.000,0.300,706.000,0.500,768.000,1.000,294.000,5.000,0
"04/01/08","03:13:18",10678.000,"cc",28314.643,6.00,6,0.100,7367.000,0.200,1425.000,0.300,752.000,0.500,850.000,1.000,284.000,5.000,0
"04/01/08","03:13:24",10580.000,"cc",28299.906,6.00,6,0.100,7387.000,0.200,1323.000,0.300,744.000,0.500,854.000,1.000,272.000,5.000,0
"04/01/08","03:13:30",10845.000,"cc",28238.795,6.00,6,0.100,7447.000,0.200,1421.000,0.300,802.000,0.500,878.000,1.000,297.000,5.000,0
"04/01/08","03:13:36",10710.000,"cc",28337.184,6.00,6,0.100,7475.000,0.200,1386.000,0.300,723.000,0.500,869.000,1.000,257.000,5.000,0
"04/01/08","03:13:42",10666.000,"cc",28326.531,6.00,6,0.100,7479.000,0.200,1349.000,0.300,763.000,0.500,794.000,1.000,281.000,5.000,0
"04/01/08","03:13:48",10777.000,"cc",28309.248,6.00,6,0.100,7496.000,0.200,1394.000,0.300,767.000,0.500,869.000,1.000,251.000,5.000,0
"04/01/08","03:13:54",10813.000,"cc",28329.822,6.00,6,0.100,7570.000,0.200,1401.000,0.300,781.000,0.500,781.000,1.000,280.000,5.000,0
"04/01/08","03:14:00",10650.000,"cc",28355.684,6.00,6,0.100,7401.000,0.200,1409.000,0.300,693.000,0.500,859.000,1.000,288.000,5.000,0
"04/01/08","03:14:06",10819.000,"cc",28326.508,6.00,6,0.100,7572.000,0.200,1406.000,0.300,709.000,0.500,808.000,1.000,324.000,5.000,0
"04/01/08","03:14:12",10673.000,"cc",28319.111,6.00,6,0.100,7396.000,0.200,1374.000,0.300,742.000,0.500,871.000,1.000,290.000,5.000,0
"04/01/08","03:14:18",10578.000,"cc",28310.635,6.00,6,0.100,7394.000,0.200,1376.000,0.300,723.000,0.500,798.000,1.000,287.000,5.000,0
"04/01/08","03:14:24",10867.000,"cc",28302.615,6.00,6,0.100,7501.000,0.200,1424.000,0.300,829.000,0.500,833.000,1.000,280.000,5.000,0
"04/01/08","03:14:30",10814.000,"cc",28293.268,6.00,6,0.100,7585.000,0.200,1373.000,0.300,741.000,0.500,800.000,1.000,315.000,5.000,0
"04/01/08","03:14:36",10635.000,"cc",28313.512,6.00,6,0.100,7455.000,0.200,1397.000,0.300,750.000,0.500,792.000,1.000,241.000,5.000,0
"04/01/08","03:14:42",10860.000,"cc",28366.002,6.00,6,0.100,7599.000,0.200,1377.000,0.300,757.000,0.500,844.000,1.000,283.000,5.000,0
"04/01/08","03:14:48",10704.000,"cc",28338.736,6.00,6,0.100,7480.000,0.200,1442.000,0.300,727.000,0.500,769.000,1.000,286.000,5.000,0
"04/01/08","03:14:54",10626.000,"cc",28396.748,6.00,6,0.100,7334.000,0.200,1415.000,0.300,759.000,0.500,813.000,1.000,305.000,5.000,0
"04/01/08","03:15:00",10593.000,"cc",28318.553,6.00,6,0.100,7427.000,0.200,1362.000,0.300,703.000,0.500,797.000,1.000,304.000,5.000,0
"04/01/08","03:15:06",10490.000,"cc",28286.387,6.00,6,0.100,7324.000,0.200,1346.000,0.300,734.000,0.500,818.000,1.000,268.000,5.000,0
"04/01/08","03:15:12",10486.000,"cc",28299.303,6.00,6,0.100,7238.000,0.200,1341.000,0.300,736.000,0.500,860.000,1.000,311.000,5.000,0
"04/01/08","03:15:18",10488.000,"cc",28352.807,6.00,6,0.100,7354.000,0.200,1321.000,0.300,726.000,0.500,782.000,1.000,305.000,5.000,0
"04/01/08","03:15:24",10386.000,"cc",28263.057,6.00,6,0.100,7210.000,0.200,1378.000,0.300,723.000,0.500,793.000,1.000,282.000,5.000,0
"04/01/08","03:15:30",10450.000,"cc",28297.285,6.00,6,0.100,7287.000,0.200,1408.000,0.300,716.000,0.500,765.000,1.000,274.000,5.000,0
"04/01/08","03:15:36",10621.000,"cc",28367.361,6.00,6,0.100,7408.000,0.200,1375.000,0.300,758.000,0.500,813.000,1.000,267.000,5.000,0
"04/01/08","03:15:42",10651.000,"cc",28272.479,6.00,6,0.100,7459.000,0.200,1352.000,0.300,753.000,0.500,800.000,1.000,287.000,5.000,0
"04/01/08","03:15:48",10236.000,"cc",28327.147,6.00,6,0.100,7140.000,0.200,1392.000,0.300,701.000,0.500,723.000,1.000,280.000,5.000,0
"04/01/08","03:15:54",10483.000,"cc",28299.020,6.00,6,0.100,7347.000,0.200,1316.000,0.300,752.000,0.500,785.000,1.000,283.000,5.000,0
"04/01/08","03:16:00",10371.000,"cc",28292.732,6.00,6,0.100,7281.000,0.200,1338.000,0.300,717.000,0.500,763.000,1.000,272.000,5.000,0
"04/01/08","03:16:06",10192.000,"cc",28313.199,6.00,6,0.100,7183.000,0.200,1309.000,0.300,682.000,0.500,764.000,1.000,254.000,5.000,0
"04/01/08","03:16:12",10135.000,"cc",28310.127,6.00,6,0.100,7115.000,0.200,1345.000,0.300,686.000,0.500,735.000,1.000,254.000,5.000,0
"04/01/08","03:16:18",10225.000,"cc",28355.973,6.00,6,0.100,7070.000,0.200,1394.000,0.300,722.000,0.500,776.000,1.000,263.000,5.000,0
"04/01/08","03:16:24",10367.000,"cc",28291.602,6.00,6,0.100,7269.000,0.200,1361.000,0.300,683.000,0.500,801.000,1.000,253.000,5.000,0
"04/01/08","03:16:30",10412.000,"cc",28326.492,6.00,6,0.100,7150.000,0.200,1444.000,0.300,737.000,0.500,795.000,1.000,286.000,5.000,0
"04/01/08","03:16:36",10435.000,"cc",28272.252,6.00,6,0.100,7385.000,0.200,1296.000,0.300,700.000,0.500,781.000,1.000,273.000,5.000,0